Regional Weather Roundup
Issued by NWS Mt. Holly, NJ

Home | Current Version | Previous Version | Text Only | Print | Product List | Glossary On
Versions: 1 2 3 4 5 6 7 8 9 10 11 12 13 14 15 16 17 18 19 20 21 22 23 24 25 26 27 28 29 30 31 32 33 34 35 36 37 38 39 40 41 42 43 44 45 46 47 48 49 50
000
ASUS41 KPHI 270810
RWRPHI

REGIONAL WEATHER ROUNDUP
NATIONAL WEATHER SERVICE MOUNT HOLLY NJ
400 AM EDT WED AUG 27 2014

NOTE:  "FAIR" INDICATES FEW OR NO CLOUDS BELOW 12,000 FEET WITH NO
SIGNIFICANT WEATHER AND/OR OBSTRUCTIONS TO VISIBILITY.

 * = STATION DOES NOT REPORT PRECIPITATION (E.G. RAIN, SNOW, ETC.)
        OR FOG.

NJZ015>026-270900-
SOUTHERN NEW JERSEY

CITY           SKY/WX    TMP DP  RH WIND       PRES   REMARKS
POMONA         CLEAR     62  60  93 NW3       30.05S
RIO GRANDE*    CLEAR     59  55  88 CALM      30.06S
MILLVILLE      CLEAR     59  57  93 CALM      30.05S
WRIGHTSTOWN    CLEAR     62  62  99 W3        30.03S
MOUNT HOLLY    CLEAR     61  59  93 CALM      30.05S
TRENTON        CLEAR     66  61  84 NW3       30.04F

$$
NJZ001>014-270900-
NORTHERN NEW JERSEY

CITY           SKY/WX    TMP DP  RH WIND       PRES   REMARKS
SUSSEX         CLEAR     62  59  90 CALM      30.05F FOG
ANDOVER*         N/A     62  61  96 CALM      30.06F
MORRISTOWN     PTCLDY    63  59  88 CALM      30.05S
NEWARK         CLEAR     69  62  78 W3        30.04F
TETERBORO      CLEAR     68  60  75 CALM      30.02F
CALDWELL       CLEAR     66  60  81 CALM      30.05F
SOMERVILLE     CLEAR     62  60  93 CALM      30.03F
ALLAIRE*       CLEAR     64  57  77 W5        30.04F
TOMS RIVER*    CLEAR     57  55  94 CALM      30.05F

$$
PAZ043-044-047-054-055-060>062-066>071-270900-
EASTERN PENNSYLVANIA

CITY           SKY/WX    TMP DP  RH WIND       PRES   REMARKS
PHILADELPHIA   CLEAR     70  61  73 SW5       30.05F
NORTH PHILA    CLEAR     67  61  81 CALM      30.06F
BLUE BELL        N/A     63  63 100 CALM      30.05S
DOYLESTOWN     CLEAR     64  64 100 CALM      30.05F
QUAKERTOWN*    CLEAR     63  61  94 CALM      30.07S
POTTSTOWN      CLEAR     62  60  93 CALM      30.07S
LANCASTER      CLEAR     63  60  90 CALM      30.06S FOG
COATESVILLE    CLEAR     63  63 100 W3        30.07S
READING        CLEAR     66  62  87 CALM      30.05F
ALLENTOWN      CLEAR     64  60  87 CALM      30.06S
MOUNT POCONO   CLEAR     58  55  90 W3        30.10F
HAZLETON       CLEAR     57  57 100 CALM      30.12F
WILKES BARRE   PTCLDY    62  58  86 CALM      30.06F

$$
DEZALL-MDZ008-012-015-019-020-270900-
DELAWARE AND EASTERN MARYLAND

CITY           SKY/WX    TMP DP  RH WIND       PRES   REMARKS
WILMINGTON     CLEAR     65  63  93 CALM      30.06S
DOVER          CLEAR     62  62 100 CALM      30.03F
GEORGETOWN     FOG       58  57  97 S6        30.06S VSB 1/2
EASTON         CLEAR     62  62 100 CALM      30.09S
PATUXENT       CLEAR     60  59  96 CALM      30.05R
OCEAN CITY     CLOUDY    59  58  96 CALM      30.05F FOG
WALLOPS ISLAND CLEAR     64  62  93 CALM      30.05S
CAMBRIDGE      CLEAR     59  55  88 CALM      30.05R
SALISBURY      FOG       60  57  89 CALM      30.06S VSB 1/2

$$
PAZ001-021-NYZ056-072-MDZ011-DCZ001-270900-
OTHER NEARBY LOCATIONS

CITY           SKY/WX    TMP DP  RH WIND       PRES   REMARKS
HARRISBURG     PTCLDY    66  62  87 CALM      30.05S
STATE COLLEGE  CLEAR     63  59  88 CALM      30.10S
WILLIAMSPORT   CLEAR     62  59  90 CALM      30.06S
BINGHAMTON     MOCLDY    67  59  75 SW8       30.07R
NEW YORK CITY  CLEAR     71  61  70 W5        30.07S
BALTIMORE      CLEAR     65  62  90 CALM      30.04F
WASHINGTON DC  PTCLDY    72  65  78 CALM      30.05F

$$



USA.gov is the U.S. government's official web portal to all federal, state and local government web resources and services.